Location: Hall+in+Tirol
(47.2830°N, 11.5170°E)
Time: 03:02:33
(UTC+02:00)

Gurwin Techsat 1B - Visible Passes

Search period start: 28 August 2014 00:00
Search period end: 07 September 2014 00:00
Orbit: 812 x 815 km, 98.5° (Epoch: 25 August)

Date Brightness Start Highest point End Pass type
(mag) Time Alt. Az. Time Alt. Az. Time Alt. Az.
28 Aug 9.2 03:55:21 10° NNE 04:00:34 54° E 04:03:25 26° SSE visible
28 Aug 9.8 05:35:58 10° N 05:40:13 25° WNW 05:44:26 10° WSW visible
29 Aug 9.9 03:32:56 10° NNE 03:37:48 35° E 03:40:25 23° SE visible
29 Aug 9.3 05:12:57 10° N 05:17:46 36° WNW 05:21:37 15° SW visible
30 Aug 10.5 03:10:46 10° NE 03:14:58 23° E 03:17:24 17° SE visible
30 Aug 8.8 04:50:05 10° N 04:55:16 54° WNW 04:58:37 22° SW visible
31 Aug 10.9 02:49:03 10° NE 02:52:02 15° E 02:54:23 12° ESE visible
31 Aug 8.5 04:27:20 10° NNE 04:32:40 82° WNW 04:35:36 28° SSW visible
01 Sep 8.9 04:04:42 10° NNE 04:10:01 66° ESE 04:12:35 31° S visible
01 Sep 10.0 05:45:36 10° NNW 05:49:30 21° WNW 05:53:24 10° WSW visible
02 Sep 9.6 03:42:13 10° NNE 03:47:16 43° E 03:49:34 28° SSE visible
02 Sep 9.6 05:22:30 10° N 05:27:06 31° WNW 05:30:47 14° WSW visible
03 Sep 10.2 03:19:55 10° NE 03:24:28 28° E 03:26:34 22° SE visible
03 Sep 9.0 04:59:34 10° N 05:04:37 45° WNW 05:07:46 22° SW visible
04 Sep 10.7 02:57:57 10° NE 03:01:34 18° E 03:03:33 15° ESE visible
04 Sep 8.6 04:36:46 10° N 04:42:04 69° WNW 04:44:45 29° SSW visible
05 Sep 11.2 02:36:56 10° ENE 02:38:35 11° E 02:40:15 10° ESE visible
05 Sep 8.6 04:14:05 10° NNE 04:19:26 79° ESE 04:21:44 35° S visible
05 Sep 10.2 05:55:17 10° NNW 05:58:47 18° WNW 06:02:17 10° W visible
06 Sep 9.2 03:51:32 10° NNE 03:56:44 51° E 03:58:43 34° SSE visible
06 Sep 9.8 05:32:04 10° N 05:36:25 26° WNW 05:39:56 14° WSW visible
